Location: *
(51.4660°N, 0.3360°W)
Time: 19:52:49
(UTC+00:00)

Cosmos 1833 Rocket - Pass Details

Date: 19 September 2019
Orbit: 834 x 838 km, 71.0° (Epoch: 16 October)

Event Time Altitude Azimuth Distance (km) Brightness Sun altitude
Rises 22:51:21 0° 330° (NNW) 3,395 6.8 -35.5°
Reaches altitude 10° 22:54:13 10° 344° (NNW) 2,457 5.9 -35.7°
Enters shadow 22:58:19 25° 30° (NNE) 1,618 4.4 -35.9°
